Location: Unspecified
(52.0000°N, 4.4000°E)
Time: 23:59:00
(UTC+00:00)

SeaSat 1 - Pass Details

Date: 14 May 2025
Orbit: 738 x 740 km, 108.0° (Epoch: 22 June)

Event Time Altitude Azimuth Distance (km) Brightness Sun altitude
Exits shadow 22:03:06 19° 196° (SSW) 1,716 3.9 -16.1°
Maximum altitude 22:05:58 34° 249° (WSW) 1,208 3.5 -16.3°
Drops below altitude 10° 22:10:25 10° 314° (NW) 2,259 6.0 -16.6°
Sets 22:12:53 0° 324° (NW) 3,187 7.2 -16.7°
